Погода в Серанге

Индонезия     6°07′09″S   106°10′38″E
темп.,
°C
ветер,
м/с
пор.,
м/с
влажн.,
%
обл.,
%
осадки,
мм/ч
давл.,
гПа
погр.,
м
29 июля, чт
чт2901:00+26ююв11716 0.0 1011164
04:00+24ююз227637 0.0 1011121
07:00+25ю227838 0.0 1012122
10:00+29св11586 0.0 1012704
13:00+30с3258100 0.0 10101053
16:00+29ссз336199 0.0 1009601
19:00+27зсз336768 0.0 1010209
22:00+26ю117065 0.0 1012180
30 июля, пт
пт3001:00+26в12755 0.0 1011256
04:00+25з017817 0.0 1011237
07:00+25ю228116 0.1 1012163
10:00+29юв11645 0.0 1013784
13:00+30с22571 0.0 10101096
16:00+29ссз55654 0.0 1010569
19:00+28з23725 0.0 1011192
22:00+26ююв34795 0.0 1013183
31 июля, сб
сб3101:00+25ююв33825 0.1 1011141
04:00+25юв23832 0.3 1010188
07:00+26ююв23815 0.3 1012233
10:00+29всв226713 0.4 1012767
13:00+30ссв436226 1.4 10101009
16:00+29с32647 0.1 1009747
19:00+27сз227212 0.1 1011204
22:00+27сз01748 0.0 1012212
1 августа, вс
вс101:00+26ююз117785 0.0 1011170
04:00+25ююз228279 0.0 1010119
07:00+26ююв118161 0.1 1011125
10:00+29в116482 0.0 1012736
13:00+30с426268 0.3 10091069
16:00+29сз346570 0.5 1008641
19:00+28сз2372100 0.6 1009210
22:00+27всв1277100 0.8 1011105
2 августа, пн
пн201:00+25вюв1184100 3.2 100943
04:00+24ююв2289100 0.6 1009118
07:00+25ю2284100 1.3 1010114
10:00+29в1166100 0.2 1011641
13:00+30ссв3362100 0.4 1008988
16:00+29ссв3264100 0.1 1007715
19:00+27ссв227262 0.1 1009242
22:00+27в117542 0.2 1011128